Rifle, CO

1:02 PM MDT on September 26, 2017 (GMT -0600)
Garfield County Regional

Weather History for KRIL - December, 2012

Change the Weather History Date:

Friday, December 14, 2012

  Actual Average Record
Temperature  
Mean Temperature 33 °F 25 °F  
Max Temperature 41 °F 36 °F 59 °F (2006)
Min Temperature 24 °F 15 °F -18 °F (1919)
Degree Days  
Heating Degree Days 32 40  
Month to date heating degree days 461 534  
Since 1 July heating degree days 1719 2060  
Cooling Degree Days 0 0  
Month to date cooling degree days 0 0  
Year to date cooling degree days 809 541  
Moisture  
Dew Point 27 °F    
Average Humidity 72    
Maximum Humidity 96    
Minimum Humidity 48    
Precipitation  
Precipitation T in 0.02 in 0.29 in (1975)
Month to date precipitation 0.05 0.39  
Year to date precipitation 7.33 13.85  
Sea Level Pressure  
Sea Level Pressure 29.72 in    
Wind  
Wind Speed 2 mph (WSW)    
Max Wind Speed 18 mph    
Max Gust Speed 21 mph    
Visibility 6 miles    
Events Rain , Snow    
T = Trace of Precipitation, MM = Missing Value Source: NWS Daily Summary

Daily Weather History Graph

Daily Weather History Graph

Search for Another Location

Airport or City:

Trip Planner

Search our weather history database for the weather conditions in past years. The results will help you decide how hot, cold, wet, or windy it might be!

Date:

Astronomy

Dec. 14, 2012 Rise Set
Actual Time 7:23 AM MST 4:47 PM MST
Civil Twilight 6:53 AM MST 5:18 PM MST
Nautical Twilight 6:19 AM MST 5:51 PM MST
Astronomical Twilight 5:47 AM MST 6:24 PM MST
Moon 8:31 AM MST (12/14) 6:43 PM MST (12/14)
Length of Visible Light 10h 24m
Length of Day
9h 23m
Waxing Crescent, 3% of the Moon is Illuminated
Dec 14
Waxing Crescent
Dec 19
First Quarter
Dec 28
Full
Jan 4
Last Quarter
Jan 11
New

Hourly Weather History & Observations

Time (MST) Temp. Windchill Dew Point Humidity Pressure Visibility Wind Dir Wind Speed Gust Speed Precip Events Conditions
12:53 AM 27.0 °F - 19.0 °F 72% 29.87 in 10.0 mi Calm Calm - N/A   Clear
1:53 AM 27.0 °F - 19.0 °F 72% 29.85 in 10.0 mi Calm Calm - N/A   Clear
2:53 AM 25.0 °F - 18.0 °F 75% 29.83 in 10.0 mi Calm Calm - N/A   Clear
3:53 AM 27.0 °F - 18.0 °F 69% 29.80 in 10.0 mi Calm Calm - N/A   Clear
4:53 AM 25.0 °F 19.3 °F 19.0 °F 78% 29.80 in 10.0 mi SW 4.6 mph - N/A   Clear
5:53 AM 26.1 °F - 19.9 °F 78% 29.78 in 10.0 mi Calm Calm - N/A   Clear
6:53 AM 28.0 °F - 19.0 °F 69% 29.75 in 10.0 mi Calm Calm - N/A   Clear
7:53 AM 28.0 °F - 21.0 °F 75% 29.73 in 10.0 mi Calm Calm - N/A   Partly Cloudy
8:53 AM 30.9 °F - 21.0 °F 67% 29.72 in 10.0 mi Calm Calm - N/A   Overcast
9:53 AM 30.9 °F - 21.0 °F 67% 29.71 in 10.0 mi Calm Calm - N/A   Overcast
10:53 AM 35.1 °F - 21.0 °F 57% 29.67 in 10.0 mi Calm Calm - N/A   Scattered Clouds
11:53 AM 36.0 °F - 21.0 °F 55% 29.61 in 10.0 mi Calm Calm - N/A   Overcast
12:53 PM 39.0 °F 35.7 °F 21.0 °F 49% 29.57 in 10.0 mi East 4.6 mph - N/A   Overcast
1:53 PM 39.9 °F - 21.9 °F 49% 29.55 in 10.0 mi Calm Calm - N/A   Overcast
2:53 PM 39.0 °F 34.8 °F 28.0 °F 65% 29.59 in 10.0 mi West 5.8 mph - N/A   Overcast
3:53 PM 34.0 °F 25.0 °F 30.9 °F 89% 29.63 in 10.0 mi West 12.7 mph - 0.00 in Rain Light Rain
4:24 PM 33.8 °F 28.6 °F 30.2 °F 87% 29.62 in 2.0 mi WNW 5.8 mph - 0.00 in Snow Light Snow
4:38 PM 33.8 °F 27.7 °F 30.2 °F 87% 29.62 in 3.0 mi West 6.9 mph - 0.00 in Snow Light Snow
4:51 PM 33.8 °F 27.7 °F 30.2 °F 87% 29.63 in 3.0 mi West 6.9 mph - 0.00 in Snow Light Snow
4:53 PM 33.1 °F 26.9 °F 30.9 °F 92% 29.68 in 3.0 mi West 6.9 mph - 0.00 in Snow Light Snow
5:06 PM 32.0 °F 27.5 °F 30.2 °F 93% 29.64 in 2.5 mi WNW 4.6 mph - 0.00 in Snow Light Snow
5:20 PM 32.0 °F 26.4 °F 30.2 °F 93% 29.65 in 1.8 mi WNW 5.8 mph - 0.00 in Snow Light Snow
5:28 PM 32.0 °F 28.7 °F 30.2 °F 93% 29.65 in 2.5 mi WNW 3.5 mph - 0.00 in Snow Light Snow
5:53 PM 33.1 °F 28.7 °F 30.9 °F 92% 29.71 in 4.0 mi WSW 4.6 mph - 0.00 in Snow Light Snow
6:16 PM 33.8 °F 30.8 °F 30.2 °F 87% 29.68 in 3.0 mi SW 3.5 mph - 0.00 in Snow Light Snow
6:30 PM 33.8 °F - 32.0 °F 93% 29.69 in 6.0 mi Calm Calm - 0.00 in Snow Light Snow
6:53 PM 33.1 °F - 30.9 °F 92% 29.74 in 4.0 mi Calm Calm - 0.00 in Snow Light Snow
7:08 PM 33.8 °F 30.8 °F 32.0 °F 93% 29.71 in 2.5 mi SSE 3.5 mph - 0.00 in Snow Light Snow
7:17 PM 33.8 °F 29.6 °F 30.2 °F 87% 29.71 in 2.5 mi SE 4.6 mph - 0.00 in Snow Light Snow
7:26 PM 32.0 °F 27.5 °F 32.0 °F 100% 29.72 in 3.0 mi SE 4.6 mph - 0.00 in Snow Light Snow
7:35 PM 32.0 °F 28.7 °F 30.2 °F 93% 29.72 in 2.5 mi SE 3.5 mph - 0.00 in Snow Light Snow
7:40 PM 33.8 °F - 32.0 °F 93% 29.73 in 3.0 mi Calm Calm - 0.00 in Snow Light Snow
7:53 PM 33.1 °F - 30.9 °F 92% 29.78 in 2.5 mi Calm Calm - 0.00 in Snow Light Snow
8:09 PM 33.8 °F - 32.0 °F 93% 29.74 in 3.0 mi Calm Calm - 0.00 in Snow Light Snow
8:53 PM 33.1 °F - 30.9 °F 92% 29.78 in 8.0 mi Calm Calm - 0.00 in   Overcast
9:53 PM 33.1 °F 30.0 °F 32.0 °F 96% 29.81 in 9.0 mi SSW 3.5 mph - 0.00 in   Overcast
10:53 PM 34.0 °F 31.0 °F 30.9 °F 89% 29.80 in 6.0 mi SSW 3.5 mph - 0.00 in Snow Light Snow
11:30 PM 33.8 °F 30.8 °F 30.2 °F 87% 29.80 in 8.0 mi ENE 3.5 mph - 0.00 in   Overcast
11:41 PM 33.8 °F 30.8 °F 30.2 °F 87% 29.80 in 2.5 mi ESE 3.5 mph - 0.00 in Snow Light Snow
11:53 PM 33.1 °F - 32.0 °F 96% 29.81 in 6.0 mi Calm Calm - 0.00 in Snow Light Snow